World > North America > United States > Ohio

Hourly Redoak, OH Regional Weather

Feedback E-mail the Weather

Quick WX

Redoak, OH Weather Maps

°F °C°F °C
Redoak Weather Map
UTC Time: 6/29/2022, 19:51
Your Time:

Redoak, OH Regional Weather

Expires:202206292000;;398934
ASUS41 KCLE 291912
RWRCLE
OHIO REGIONAL WEATHER ROUNDUP
NATIONAL WEATHER SERVICE WILMINGTON, OH
300 PM EDT WED JUN 29 2022

NOTE: "FAIR" INDICATES FEW OR NO CLOUDS BELOW 12,000 FEET WITH NO
SIGNIFICANT WEATHER AND/OR OBSTRUCTIONS TO VISIBILITY.


OHZ042-051>053-060>062-070>072-077>081-292000-
  SOUTHWEST OHIO
  
CITY           SKY/WX    TMP DP  RH WIND       PRES   REMARKS
CINC-COVINGTON FAIR      84  52  33 NW7       30.24F                  
CINC-LUNKEN    FAIR      83  48  29 E3        30.24F                  
HAMILTON       FAIR      84  48  28 N5        30.25F                  
DAYTON         FAIR      84  50  30 W6        30.25F                  
WRIGHT-PAT AFB MOSUNNY   83  48  28 SW5       30.20F                  
DAYTON GENERAL FAIR      82  49  31 CALM      30.24F                  
WILMINGTON     FAIR      82  48  30 VRB3      30.25F                  
$$


SKY/WX - Weather  TMP - Temperature  DP - Dew Point  RH - Humidity
WIND - Wind Direction/Speed PRES - Barometric Pressure VSB - Visibility
WCI - Wind Chill Index E13G22 Wind - East Wind 13 mph/Gusts of 22 mph

Trending Headlines

Redoak Radar Loop



Redoak Quick Facts


National Two Day Weather Forecast


E-mail the Redoak Weather Forecast

Voice your opinion or tell us about page issues...